Temperature
20 21 20 19 19 18 18 18 18 17 17 17 17 17 17 17 17 17 17 17 17 17 17 16 16 16 16 16 16 16 16 16 16 16 16 16 16 16 16 16 16 16 15
21 20 20 19 18 18 18 18 17 17 17 17 17 17 17 17 17 17 17 17 17 17 16 16 16 16 16 16 16 16 16 16 16 16 16 16 16 16 16 16 16 16 16
20 20 19 19 18 18 17 17 17 17 17 17 17 17 17 16 16 16 16 16 16 16 16 16 16 16 16 16 16 16 16 16 15 15 15 16 16 16 16 16 16 16 16
19 19 19 18 18 17 17 17 17 17 17 17 16 16 16 16 16 16 16 16 16 16 16 16 16 16 16 16 16 16 16 15 15 15 15 16 16 16 16 16 16 16 16
18 18 18 18 17 17 17 17 17 17 16 16 16 16 16 16 16 16 16 16 16 16 16 16 16 16 16 16 16 16 15 15 15 15 15 16 16 16 16 16 16 16 16
17 18 18 18 17 17 17 17 17 16 16 16 16 16 16 16 16 16 16 16 16 16 16 16 16 16 16 16 16 16 15 15 15 15 15 16 16 16 16 16 16 16 16
17 17 17 17 17 17 17 17 16 16 16 16 16 16 16 16 16 16 16 16 16 16 16 16 16 16 16 16 16 16 15 15 15 15 16 16 16 16 16 16 16 16 15
17 17 17 17 17 17 16 16 16 16 16 16 16 16 16 16 16 16 16 16 16 16 16 16 16 16 16 16 16 16 15 15 15 15 16 16 16 16 16 16 16 15 15
17 17 17 16 16 16 16 16 16 16 16 16 16 16 15 15 16 16 16 16 16 16 16 16 16 16 16 16 16 16 15 15 15 15 16 16 16 16 16 15 15 15 15
16 16 16 16 16 16 16 16 16 16 16 16 15 15 15 15 15 15 15 16 15 16 16 16 16 16 16 16 16 15 15 15 15 15 15 16 16 16 15 15 15 15 15
15 15 15 16 16 16 16 16 15 15 15 15 15 15 15 15 15 15 15 15 15 15 16 16 16 16 16 16 16 15 15 15 15 15 15 15 15 15 15 15 15 15 15
15 15 15 15 15 15 15 15 15 15 15 15 15 15 15 15 15 15 15 15 15 15 15 16 16 16 16 16 15 15 15 14 15 15 15 15 15 15 15 15 15 15 15
15 15 14 14 14 15 15 15 15 15 15 15 15 15 15 15 14 15 15 15 15 15 15 15 15 16 15 15 15 15 15 14 14 15 15 15 15 15 15 15 15 14 14
14 14 14 14 14 14 15 15 15 15 15 15 15 14 14 14 14 14 15 15 15 15 15 15 15 15 15 15 15 15 14 14 14 15 15 15 15 15 15 15 14 14 14
14 14 14 14 14 14 14 14 14 14 14 14 14 14 14 14 14 14 15 15 15 15 15 15 15 15 15 15 14 14 14 14 14 14 15 15 15 15 15 14 14 14 14
13 14 14 14 14 14 14 14 14 14 14 14 14 14 14 14 14 14 14 14 14 14 15 15 15 14 14 14 14 14 14 14 14 14 14 14 14 14 14 14 14 14 14
13 13 14 14 14 14 14 14 14 14 14 14 14 14 14 14 14 14 14 14 14 14 14 14 14 14 14 14 14 14 14 14 14 14 14 14 14 14 14 14 14 14 14
13 13 13 13 13 13 13 14 14 14 14 14 14 14 14 14 14 14 14 14 14 14 14 14 14 14 14 14 14 14 14 14 14 14 14 14 14 14 14 14 14 14 13
12 13 13 13 13 13 13 13 14 14 14 14 14 14 14 14 14 14 14 14 14 14 14 14 14 14 14 14 14 14 14 14 14 14 14 14 14 14 14 14 13 13 13
12 13 13 13 13 13 13 13 13 13 13 14 14 14 14 14 14 14 14 14 14 14 14 14 14 14 14 14 14 14 14 14 14 14 14 14 14 14 14 14 13 13 13
12 12 12 12 12 13 13 13 13 13 13 13 14 14 14 14 14 14 14 14 14 14 14 14 14 13 13 13 13 13 13 13 14 14 14 14 14 13 13 13 13 13 13
12 12 12 12 12 12 13 13 13 13 13 13 14 13 14 14 14 14 14 14 14 14 14 13 13 13 13 13 13 13 13 13 13 13 14 14 13 13 13 13 13 12 12
11 12 12 12 12 12 12 12 13 13 13 13 13 13 13 13 14 13 13 14 13 13 13 13 13 13 13 13 13 13 13 13 13 13 13 13 13 13 13 13 13 12 12
11 11 11 12 12 12 12 12 12 12 12 12 13 13 13 13 13 13 13 13 13 13 13 13 13 13 13 13 13 13 13 13 13 12 12 13 12 12 12 12 12 12 11
10 11 11 11 11 12 12 12 12 12 12 12 12 12 12 12 12 12 12 12 13 13 13 13 13 13 13 13 13 13 13 13 12 12 12 12 12 12 12 11 11 11 11
10 11 11 11 11 11 11 11 11 12 12 12 12 12 12 12 12 12 12 12 12 12 12 12 12 12 12 12 12 12 12 12 12 12 12 11 11 11 11 11 11 11 11
Wind_Speed
13 19 25 23 22 22 22 21 20 20 20 19 19 18 18 17 17 17 17 18 18 17 17 17 17 17 18 19 19 19 19 20 20 20 20 19 18 18 18 18 17 17 19
17 21 25 23 22 22 21 21 20 20 20 20 19 19 18 18 17 17 17 17 17 17 17 17 17 18 18 18 18 18 18 18 18 19 19 19 19 18 19 19 17 16 18
19 21 24 23 22 21 21 21 20 20 20 20 19 19 19 18 17 18 17 17 17 17 17 17 17 17 18 17 17 16 15 14 13 14 16 16 17 18 18 18 18 17 17
18 20 21 23 22 21 21 21 20 20 20 20 20 19 19 18 18 18 18 18 17 17 17 17 17 17 17 16 15 14 12 9 7 9 14 15 15 16 17 17 16 16 16
15 18 20 23 22 21 20 20 20 20 20 20 19 19 19 18 18 18 18 18 17 18 18 18 17 17 16 15 14 12 8 6 8 13 16 16 14 15 15 15 15 15 15
13 16 21 23 21 21 20 20 20 20 20 20 19 19 19 19 19 19 18 18 18 18 18 17 17 16 15 14 12 9 5 4 6 13 16 15 13 14 14 14 14 14 14
10 14 21 23 21 21 20 20 20 19 19 20 19 20 19 19 19 19 18 18 18 18 18 17 16 15 14 13 10 7 3 4 8 14 16 15 13 13 13 13 13 13 13
8 12 18 22 21 20 20 20 20 19 19 19 19 20 19 19 19 19 19 19 18 18 17 16 16 14 13 11 9 5 2 4 9 14 15 13 12 12 12 11 11 11 11
7 9 13 16 18 19 19 19 19 19 19 19 19 19 19 19 19 19 20 19 18 18 17 16 15 14 12 10 7 4 1 4 8 11 12 11 11 11 10 10 9 9 9
7 8 10 13 15 15 16 18 18 18 18 18 19 19 19 19 19 19 19 18 18 17 16 15 14 13 12 9 7 4 1 1 7 11 11 11 10 9 9 8 7 7 7
7 8 8 9 12 14 15 16 17 17 17 18 18 20 19 17 17 17 17 18 18 17 16 15 14 13 11 9 7 5 4 3 7 11 11 11 9 8 7 6 5 5 5
7 8 8 8 9 11 13 14 13 14 15 16 16 18 16 16 15 16 18 18 18 17 16 14 14 13 10 8 8 7 7 5 8 10 11 11 8 7 6 5 4 4 3
8 8 8 8 8 9 8 10 9 10 12 14 16 17 15 14 13 14 13 14 15 15 13 13 12 11 10 10 10 10 8 4 8 10 11 11 8 6 5 5 4 3 3
7 8 8 7 7 8 8 8 8 7 8 9 14 16 12 8 8 10 10 12 13 12 11 11 10 11 11 11 11 9 5 4 6 10 11 11 9 7 6 5 5 4 4
7 7 8 8 8 7 8 8 8 7 8 9 11 14 13 8 8 8 8 11 12 12 11 9 8 7 7 8 8 6 4 4 6 9 10 11 10 8 7 7 6 6 5
6 7 8 9 8 7 6 7 8 7 8 9 9 12 15 11 8 8 7 7 9 11 11 9 7 5 4 4 4 4 5 5 5 7 10 11 11 10 9 8 7 7 7
5 5 7 7 7 7 6 7 7 6 7 7 9 12 13 12 10 8 7 6 7 10 11 8 6 4 3 3 3 3 4 4 5 6 8 10 11 11 10 9 9 8 7
5 5 6 7 6 6 5 5 6 7 7 7 8 9 11 12 12 8 7 6 8 9 7 5 5 4 4 3 3 3 2 3 3 4 6 8 10 9 10 10 9 8 7
5 5 5 6 5 6 6 4 5 6 6 6 7 7 9 11 12 9 6 6 8 6 5 6 5 5 5 4 4 3 2 3 3 4 4 6 8 9 9 9 9 8 7
5 5 5 5 5 6 5 3 4 6 5 5 5 6 9 10 11 9 6 7 7 5 5 5 5 5 4 4 4 3 3 3 3 3 4 4 5 8 8 7 8 8 8
3 4 5 6 6 5 5 5 6 7 6 5 5 7 8 9 10 8 6 6 6 6 6 6 5 6 5 4 3 2 3 4 5 4 4 3 4 6 6 6 7 7 6
3 2 3 5 6 6 4 4 5 6 5 5 5 5 8 9 9 8 7 7 7 6 6 6 5 4 4 5 4 3 2 2 4 5 4 4 3 4 4 4 4 4 4
2 2 1 3 5 6 5 4 5 5 4 4 5 5 6 8 8 7 7 6 6 6 6 6 7 6 5 5 5 4 3 4 2 2 4 4 4 3 3 4 4 3 3
2 2 2 2 4 5 5 4 6 6 5 5 6 6 6 7 7 7 7 7 7 6 6 6 6 5 6 6 5 4 4 3 3 2 2 3 4 4 4 3 4 4 4
3 2 3 2 3 4 4 4 5 5 3 4 5 6 5 5 6 7 7 6 6 6 7 7 7 6 6 6 5 4 4 3 3 3 3 3 2 3 3 3 4 4 4
3 3 3 4 3 4 3 4 4 5 5 5 6 6 5 4 4 6 6 6 6 5 6 6 6 7 6 6 5 4 4 4 4 4 4 4 3 3 2 2 3 4 4
Wind_Direction
138 148 156 157 156 155 154 154 153 151 150 148 145 142 139 137 133 129 128 126 124 122 118 114 110 105 102 99 96 95 93 93 91 87 81 78 76 76 76 76 74 71 73
139 149 155 157 157 157 156 155 153 153 153 151 149 147 145 143 140 137 134 131 128 124 120 118 113 109 106 102 100 99 99 99 99 94 85 78 77 77 77 76 77 77 75
137 147 155 156 157 158 157 156 154 155 155 154 153 151 149 147 144 142 138 135 131 127 123 119 115 112 108 105 103 103 105 106 108 105 95 88 82 81 81 79 79 77 76
138 147 157 156 158 158 158 158 157 157 158 157 156 154 152 150 147 145 142 138 134 130 126 121 116 113 111 109 107 108 109 106 101 98 92 90 86 85 83 81 80 78 76
138 148 154 156 158 159 159 159 159 159 160 159 158 156 155 152 150 148 144 139 134 129 125 122 118 115 114 113 113 113 107 82 72 90 91 89 87 88 85 82 81 80 78
141 146 152 156 159 160 159 159 160 160 161 160 159 157 155 154 151 148 144 139 134 130 128 125 121 118 117 117 118 118 102 49 73 98 99 95 91 91 89 86 84 82 80
139 144 153 158 161 161 161 161 161 161 161 161 161 160 158 155 152 147 143 139 136 134 132 129 125 123 122 122 124 122 79 32 83 91 92 97 99 96 93 89 87 85 82
134 141 153 159 160 162 163 163 163 164 163 162 162 162 160 156 152 148 144 142 141 139 137 133 129 128 127 127 130 127 56 31 98 98 98 101 103 100 97 93 90 87 84
128 137 153 159 161 162 163 164 164 164 164 163 164 161 157 154 151 150 146 145 144 143 140 137 134 132 131 132 136 136 63 53 100 112 108 107 108 104 101 97 94 90 86
135 139 156 161 162 164 164 164 162 163 162 163 161 156 153 152 151 150 148 148 146 145 142 140 139 137 135 139 148 164 197 57 114 108 113 119 117 111 107 104 99 95 91
152 146 154 166 166 165 165 166 161 160 160 157 156 153 152 154 153 154 152 149 147 147 145 144 144 142 140 148 167 193 229 241 118 112 117 127 126 122 118 115 112 107 102
172 160 161 166 168 165 165 161 164 165 165 163 162 160 162 161 161 157 154 150 148 148 148 150 150 150 152 164 186 209 239 198 127 123 132 139 137 136 137 137 136 134 131
181 169 170 168 170 165 161 162 167 168 171 171 170 170 167 159 154 147 148 149 149 151 154 156 160 175 182 181 187 209 230 174 137 134 145 148 152 156 162 166 170 175 175
191 178 176 174 176 171 168 168 165 169 173 171 173 172 164 156 153 153 158 161 163 170 164 168 184 196 192 183 195 203 191 151 129 135 151 158 164 173 183 192 197 202 207
198 189 183 180 183 177 173 169 168 174 170 168 168 170 166 160 159 161 167 168 172 173 168 180 197 193 184 186 199 184 161 161 143 147 160 169 176 184 196 207 214 221 224
207 193 193 187 186 177 174 172 168 170 166 163 166 170 170 168 163 161 164 166 172 171 173 183 194 179 180 181 182 169 168 168 164 160 167 179 187 194 204 214 221 228 234
201 187 192 188 185 175 176 177 170 164 164 162 167 172 173 168 163 161 161 164 169 169 172 182 185 170 176 170 178 184 177 179 176 178 179 181 190 202 209 215 222 229 237
191 175 189 182 186 175 168 176 169 166 161 164 164 170 171 167 163 159 160 167 170 169 169 171 171 169 173 170 184 193 181 175 187 194 188 184 186 192 203 212 218 224 230
184 167 174 170 184 183 165 171 162 158 156 163 163 168 169 165 162 160 162 168 169 165 167 175 173 171 174 181 188 190 191 192 199 195 197 198 189 181 182 199 210 218 225
174 163 164 166 180 176 164 160 159 149 155 161 158 166 164 165 164 162 161 171 169 168 174 173 172 176 178 177 181 191 204 210 201 198 201 196 191 186 184 186 195 210 221
156 161 162 167 179 171 166 166 168 164 158 161 164 166 167 167 167 164 166 173 173 176 179 176 176 181 186 170 156 210 243 225 211 206 197 187 188 184 180 184 185 193 201
142 146 177 170 167 166 170 176 171 160 159 163 163 170 172 170 171 172 171 176 176 178 179 183 176 180 189 173 167 173 221 247 233 211 188 188 190 164 164 171 171 181 182
117 127 168 181 175 162 163 164 160 149 144 162 168 169 173 172 172 171 171 171 176 179 186 188 183 184 191 194 188 178 183 210 210 216 200 193 182 171 166 162 165 169 162
95 103 112 176 172 158 151 160 167 162 167 178 173 166 170 169 170 174 172 172 179 182 187 194 192 193 188 201 207 212 202 171 172 203 230 203 186 184 181 165 160 164 162
77 83 108 135 141 132 145 166 173 165 163 165 158 160 169 170 169 174 176 176 185 190 193 195 194 197 200 204 204 201 214 220 206 191 215 211 208 201 183 171 159 157 156
67 61 77 110 114 113 137 153 171 173 160 165 160 167 169 168 170 174 176 181 189 193 198 201 199 199 206 210 213 204 195 197 199 196 212 208 209 211 191 175 160 153 155
Height
1477 1480 1484 1488 1492 1495 1498 1502 1505 1508 1511 1514 1516 1519 1521 1524 1526 1528 1530 1532 1533 1535 1536 1537 1539 1540 1541 1542 1543 1544 1545 1546 1546 1547 1548 1548 1549 1549 1549 1550 1550 1550 1550
1475 1479 1484 1488 1491 1495 1498 1501 1505 1508 1511 1514 1517 1519 1522 1525 1527 1529 1531 1533 1534 1536 1537 1539 1540 1541 1543 1544 1545 1546 1547 1548 1549 1549 1550 1550 1551 1551 1551 1552 1552 1552 1552
1475 1479 1483 1487 1491 1495 1498 1501 1505 1508 1511 1514 1517 1520 1522 1525 1527 1530 1532 1534 1535 1537 1539 1540 1542 1543 1544 1546 1547 1548 1549 1550 1551 1551 1552 1552 1553 1553 1553 1554 1554 1554 1554
1475 1478 1482 1486 1490 1494 1498 1501 1504 1508 1511 1514 1517 1520 1523 1526 1528 1530 1532 1535 1536 1538 1540 1542 1543 1545 1546 1547 1549 1550 1551 1552 1553 1553 1554 1554 1554 1555 1555 1555 1556 1556 1556
1476 1479 1482 1486 1490 1494 1497 1501 1504 1507 1511 1514 1517 1520 1523 1526 1528 1531 1533 1535 1537 1539 1541 1543 1545 1546 1548 1549 1550 1552 1553 1554 1555 1555 1556 1556 1556 1557 1557 1557 1557 1557 1557
1477 1479 1482 1486 1490 1493 1497 1500 1504 1507 1510 1514 1517 1520 1523 1526 1529 1531 1533 1536 1538 1540 1542 1544 1546 1548 1549 1550 1552 1553 1554 1555 1556 1557 1557 1557 1558 1558 1558 1559 1559 1559 1559
1477 1479 1482 1486 1489 1493 1496 1500 1503 1507 1510 1513 1517 1520 1523 1526 1529 1531 1534 1536 1539 1541 1543 1545 1547 1549 1550 1552 1553 1555 1556 1557 1558 1558 1558 1559 1559 1560 1560 1560 1560 1561 1561
1476 1479 1481 1485 1489 1492 1496 1499 1503 1506 1510 1513 1516 1520 1523 1526 1529 1531 1534 1537 1539 1541 1544 1546 1548 1550 1551 1553 1555 1556 1557 1558 1559 1559 1560 1560 1561 1561 1561 1561 1562 1562 1562
1475 1477 1480 1484 1488 1491 1495 1498 1502 1506 1509 1512 1516 1519 1522 1525 1528 1531 1534 1537 1539 1542 1544 1546 1548 1550 1552 1554 1556 1557 1558 1559 1560 1560 1561 1561 1562 1562 1562 1563 1563 1563 1563
1474 1476 1479 1482 1486 1490 1494 1497 1501 1505 1508 1512 1515 1518 1522 1525 1528 1531 1534 1537 1539 1542 1545 1547 1549 1551 1553 1555 1556 1558 1559 1560 1561 1561 1562 1562 1563 1563 1563 1564 1564 1564 1564
1472 1474 1477 1481 1484 1488 1492 1496 1500 1504 1507 1511 1514 1518 1521 1524 1528 1531 1534 1537 1539 1542 1545 1547 1549 1551 1553 1555 1557 1559 1560 1561 1561 1562 1563 1563 1563 1564 1564 1564 1564 1564 1564
1470 1472 1475 1478 1482 1486 1490 1494 1498 1502 1505 1509 1512 1516 1520 1523 1527 1530 1533 1536 1539 1542 1544 1547 1549 1551 1553 1555 1557 1559 1560 1561 1562 1562 1563 1564 1564 1564 1564 1564 1564 1565 1565
1467 1469 1473 1476 1480 1484 1487 1491 1495 1499 1503 1507 1511 1515 1518 1522 1525 1528 1531 1535 1538 1541 1543 1546 1549 1551 1553 1555 1557 1559 1560 1561 1562 1562 1563 1563 1564 1564 1564 1564 1564 1564 1564
1464 1467 1471 1474 1477 1481 1485 1489 1493 1497 1501 1504 1508 1513 1516 1520 1523 1526 1530 1533 1536 1539 1542 1545 1548 1550 1552 1555 1557 1558 1560 1561 1561 1562 1562 1563 1564 1564 1564 1564 1564 1564 1564
1462 1464 1469 1472 1475 1478 1482 1486 1490 1494 1498 1502 1506 1510 1514 1517 1521 1524 1528 1531 1535 1538 1541 1544 1547 1549 1552 1554 1556 1557 1559 1560 1561 1561 1562 1562 1563 1563 1563 1563 1563 1563 1563
1458 1462 1466 1469 1472 1476 1479 1483 1487 1491 1495 1499 1503 1507 1511 1515 1519 1522 1526 1529 1533 1536 1539 1542 1545 1548 1550 1552 1554 1556 1557 1558 1559 1560 1560 1561 1561 1561 1561 1561 1561 1561 1561
1456 1459 1462 1465 1469 1473 1475 1479 1484 1488 1493 1496 1500 1505 1509 1512 1516 1520 1524 1527 1531 1534 1538 1541 1544 1546 1548 1551 1552 1554 1555 1556 1557 1558 1558 1559 1559 1559 1559 1559 1559 1559 1559
1452 1455 1459 1462 1465 1469 1473 1476 1481 1485 1489 1494 1497 1502 1506 1509 1513 1517 1521 1525 1528 1532 1535 1538 1541 1543 1546 1548 1550 1551 1553 1554 1554 1555 1556 1556 1557 1557 1557 1557 1557 1557 1557
1449 1452 1456 1459 1463 1466 1470 1473 1477 1482 1486 1491 1494 1499 1503 1506 1510 1514 1518 1522 1525 1529 1532 1535 1538 1540 1542 1545 1547 1549 1550 1550 1551 1552 1553 1554 1554 1554 1554 1554 1554 1554 1554
1447 1451 1453 1456 1460 1463 1466 1469 1474 1479 1483 1488 1491 1495 1499 1503 1506 1511 1514 1518 1522 1525 1528 1531 1534 1537 1539 1542 1544 1545 1546 1547 1548 1549 1550 1550 1551 1551 1551 1551 1551 1551 1550
1445 1448 1450 1454 1457 1460 1463 1467 1470 1475 1480 1484 1488 1492 1496 1500 1503 1507 1511 1514 1518 1521 1525 1528 1531 1533 1536 1538 1540 1542 1543 1544 1544 1545 1546 1546 1547 1547 1547 1547 1547 1547 1547
1443 1446 1449 1451 1454 1457 1461 1465 1468 1473 1477 1480 1484 1489 1492 1496 1499 1504 1507 1511 1514 1517 1521 1524 1527 1529 1531 1534 1536 1538 1539 1541 1540 1541 1542 1542 1543 1543 1543 1544 1544 1543 1543
1442 1444 1446 1450 1452 1456 1460 1463 1466 1470 1474 1478 1481 1484 1488 1492 1496 1500 1503 1507 1510 1513 1516 1519 1522 1525 1526 1529 1531 1533 1535 1535 1536 1537 1537 1538 1539 1539 1539 1539 1540 1540 1539
1442 1444 1446 1448 1450 1454 1457 1460 1462 1465 1469 1473 1477 1480 1484 1488 1492 1496 1499 1503 1506 1509 1512 1515 1518 1520 1522 1524 1526 1528 1530 1530 1532 1532 1533 1533 1534 1534 1535 1535 1535 1535 1535
1442 1443 1445 1447 1448 1451 1454 1457 1460 1463 1467 1471 1473 1477 1481 1484 1488 1491 1495 1498 1501 1504 1507 1510 1512 1515 1517 1519 1520 1522 1524 1525 1526 1527 1528 1529 1529 1530 1530 1530 1531 1531 1531
1442 1442 1443 1445 1447 1450 1453 1456 1459 1462 1464 1467 1469 1473 1477 1480 1483 1487 1490 1494 1496 1499 1502 1504 1507 1509 1511 1513 1515 1516 1518 1519 1520 1521 1522 1523 1524 1525 1525 1526 1525 1526 1526